#timestamp,LO_Frequency,Hit 
1498989615.8,286046963.3,N
1498989635.7,286046965.3,N
1498989655.5,286046964.2,N
1498989675.3,286046964.3,N
1498989695.1,286046961.5,N
1498989715.9,286046962.6,N
1498989735.7,286046960.3,N
1498989755.5,286046962.6,N
1498989775.4,286046961.4,N
1498989795.2,286046962.2,N
1498989815.0,286046959.8,N
1498989815.9,286046959.8,N
1498989835.8,286046962.1,N
1498989855.6,286046961.4,N
1498989875.4,286046962.0,N
1498989895.3,286046961.7,N
1498989915.1,286046962.2,N
1498989916.0,286046962.2,N
1498989935.8,286046960.8,N
1498989955.7,286046959.1,N
1498989975.5,286046960.7,N
1498989995.3,286046960.6,N
1498990015.1,286046960.2,N
1498990035.9,286046960.5,N
1498990055.7,286046961.7,N
1498990075.5,286046960.2,N
1498990095.4,286046959.0,N
1498990115.2,286046957.0,N
1498990135.0,286046957.6,N
1498990135.9,286046957.6,N
1498990155.8,286046955.1,Y
1498990175.6,286046963.2,N
1498990195.4,286046965.4,N
1498990215.3,286046963.2,N
1498990235.1,286046962.1,N
1498990255.8,286046961.4,N
1498990275.7,286046961.8,N
1498990295.5,286046962.3,N
1498990315.3,286046961.6,N
1498990335.2,286046962.7,N
1498990355.9,286046962.8,N
1498990375.7,286046959.9,N
1498990395.5,286046960.3,N
1498990415.4,286046961.9,N
1498990435.2,286046963.3,N
1498990455.0,286046964.8,N
1498990455.9,286046964.8,N
1498990475.8,286046965.9,N
1498990495.6,286046963.3,N
1498990515.4,286046964.1,N
1498990535.3,286046960.4,N
1498990555.1,286046960.1,N
1498990575.8,286046962.0,N
1498990595.7,286046961.9,N
1498990615.5,286046964.0,N
1498990635.3,286046963.5,N
1498990655.2,286046964.1,N
1498990675.9,286046962.8,N
1498990695.7,286046960.2,N
1498990715.6,286046960.0,N
1498990735.4,286046958.9,N
1498990755.2,286046958.7,N
1498990775.0,286046958.9,N
1498990776.0,286046958.9,N
1498990795.8,286046958.5,N
1498990815.6,286046957.8,N
1498990835.4,286046955.5,N
1498990855.3,286046956.5,N
1498990875.1,286046957.0,N
1498990895.8,286046960.7,N
1498990915.7,286046958.0,N
1498990935.5,286046955.5,N
1498990955.3,286046958.0,N
1498990975.2,286046957.8,N
1498990995.9,286046957.7,N
1498991015.7,286046958.8,N
1498991035.6,286046960.4,N
1498991055.4,286046961.0,N
1498991075.2,286046958.4,N
1498991095.1,286046958.9,N
1498991096.0,286046958.9,N
1498991115.8,286046956.8,N
1498991135.6,286046956.6,N
1498991155.4,286046959.3,N
1498991175.3,286046959.0,N
1498991195.1,286046955.1,N
1498991215.8,286046956.2,N
1498991235.7,286046953.4,N
1498991255.5,286046958.0,N
1498991275.3,286046957.7,N
1498991295.2,286046957.0,N
1498991315.9,286046956.5,N
1498991335.7,286046955.7,N
1498991355.6,286046954.3,N
1498991375.4,286046953.1,N
1498991395.2,286046952.5,N
1498991415.1,286046952.3,N
1498991416.0,286046952.3,N
1498991435.8,286046952.2,N
1498991455.6,286046953.2,N
1498991475.4,286046952.7,N
1498991495.3,286046953.1,N
1498991515.1,286046950.6,N
1498991535.8,286046950.6,N
1498991555.7,286046951.3,N
1498991575.5,286046949.4,N
1498991595.3,286046949.1,N
1498991615.2,286046949.6,N
1498991635.9,286046949.7,N
1498991655.7,286046949.4,N
1498991675.6,286046949.2,N
1498991695.4,286046949.2,N
1498991715.2,286046948.5,N
1498991735.1,286046951.3,N
1498991736.0,286046951.3,N
1498991755.8,286046950.5,N
1498991775.6,286046953.1,N
1498991795.5,286046952.7,N
1498991815.3,286046953.1,N
1498991835.1,286046950.9,N
1498991855.8,286046951.0,N
1498991875.7,286046950.9,N
1498991895.5,286046948.5,N
1498991915.3,286046950.4,N
1498991935.2,286046950.9,N
1498991955.9,286046948.6,N
1498991975.7,286046951.5,N
1498991995.6,286046949.8,N
1498992015.4,286046949.5,N
1498992035.2,286046947.1,N
1498992055.1,286046948.1,N
1498992056.0,286046948.1,N
1498992075.8,286046948.4,N
1498992095.6,286046944.0,Y
1498992115.5,286046953.6,N
1498992135.3,286046951.9,N
1498992155.1,286046952.5,N
1498992175.9,286046951.9,N
1498992195.7,286046951.8,N
1498992215.5,286046952.3,N
1498992235.3,286046952.3,N
1498992255.2,286046953.9,N
1498992275.0,286046954.0,N
1498992275.9,286046954.0,N
1498992295.7,286046951.9,N
1498992315.6,286046951.9,N
1498992335.4,286046954.8,N
1498992355.2,286046951.8,N
1498992375.1,286046952.9,N
1498992376.0,286046952.9,N
1498992395.8,286046952.6,N
1498992415.6,286046952.1,N
1498992435.5,286046952.0,N
1498992455.3,286046952.3,N
1498992475.1,286046950.7,N
1498992495.9,286046948.9,N
1498992515.7,286046948.8,N
1498992535.5,286046949.1,N
1498992555.4,286046949.4,N
1498992575.2,286046949.2,N
1498992595.0,286046947.2,N
1498992595.9,286046947.2,N
1498992615.7,286046945.3,N
1498992635.6,286046945.8,N
1498992655.4,286046946.5,N
1498992675.2,286046944.2,N
1498992695.1,286046943.8,N
1498992696.0,286046943.8,N
1498992715.8,286046945.8,N
1498992735.6,286046946.7,N
1498992755.5,286046944.4,N
1498992775.3,286046942.7,N
1498992795.1,286046943.5,N
1498992815.9,286046939.3,Y
1498992835.7,286046950.5,N
1498992855.5,286046952.4,N
1498992875.4,286046954.4,N
1498992895.2,286046953.9,N
1498992915.0,286046956.2,N
1498992915.9,286046956.2,N
1498992935.8,286046953.9,N
1498992955.6,286046956.3,N
1498992975.4,286046955.5,N
1498992995.3,286046953.4,N
1498993015.1,286046954.0,N
1498993016.0,286046954.0,N
1498993035.8,286046953.9,N
1498993055.7,286046953.6,N
1498993075.5,286046953.7,N
1498993095.3,286046951.9,N
1498993115.1,286046950.7,N
1498993135.9,286046950.9,N
1498993155.7,286046950.8,N
1498993175.5,286046950.8,N
1498993195.4,286046948.5,N
